User: anonymous   Login
Location: Sunrise Point
(46.9200°N, 121.5900°W)
Time: 13:39:07
(UTC-07:00)
Language:

Cosmos 2058 - Orbit

View from above orbital plane
View from above orbital plane
View from above satellite
View from above satellite

Ground track
Ground track

The orbit data is extracted from the following two-line orbital elements,

1 20465U 90010A   17088.70271294 +.00000488 +00000-0 +39543-4 0  9991
2 20465 082.4900 324.2834 0015032 197.2750 162.7963 14.97460800452330
Epoch (UTC): 29 March 2017 16:51:54
Eccentricity: 0.0015032
inclination: 82.4900°
perigee height: 564 km
apogee height: 585 km
right ascension of ascending node: 324.2834°
argument of perigee: 197.2750°
revolutions per day: 14.97460800
mean anomaly at epoch: 162.7963°
orbit number at epoch: 45233

The dashed part of the orbit path shows where the satellite is in the earth's shadow,  

DLR